Tarawa Terrace, NC

1:47 AM EST on February 10, 2016 (GMT -0500)
New River Marine Corps Air Station

Weather History for KNCA - June, 2013

Change the Weather History Date:

Wednesday, June 26, 2013

  Actual Average Record
Temperature  
Mean Temperature 80 °F -  
Max Temperature 88 °F 85 °F 96 °F (1997)
Min Temperature 73 °F 68 °F 66 °F (2012)
Cooling Degree Days 15    
Growing Degree Days 30 (Base 50)    
Moisture  
Dew Point 72 °F    
Average Humidity 84    
Maximum Humidity 97    
Minimum Humidity 61    
Precipitation  
Precipitation 0.02 in - - ()
Sea Level Pressure  
Sea Level Pressure 30.02 in    
Wind  
Wind Speed 6 mph (SW)    
Max Wind Speed 17 mph    
Max Gust Speed 26 mph    
Visibility 10 miles    
Events Rain , Thunderstorm    
Averages and records for this station are not official NWS values.
T = Trace of Precipitation, MM = Missing Value Source: NWS Daily Summary

Daily Weather History Graph

Daily Weather History Graph

Search for Another Location

Airport or City:

Trip Planner

Search our weather history database for the weather conditions in past years. The results will help you decide how hot, cold, wet, or windy it might be!

Date:

Astronomy

Jun. 26, 2013 Rise Set
Actual Time 5:58 AM EDT 8:26 PM EDT
Civil Twilight 5:28 AM EDT 8:56 PM EDT
Nautical Twilight 4:52 AM EDT 9:32 PM EDT
Astronomical Twilight 4:12 AM EDT 10:13 PM EDT
Moon 10:59 PM EDT (6/26) 9:38 AM EDT (6/26)
Length of Visible Light 15h 27m
Length of Day
14h 28m
Waning Gibbous, 85% of the Moon is Illuminated
Jun 26
Waning Gibbous
Jun 30
Last Quarter
Jul 8
New
Jul 15
First Quarter
Jul 22
Full

Hourly Weather History & Observations

Time (EDT) Temp. Heat Index Dew Point Humidity Pressure Visibility Wind Dir Wind Speed Gust Speed Precip Events Conditions
12:56 AM 73.0 °F - 71.1 °F 93% 30.06 in 10.0 mi SSW 4.6 mph - N/A   Clear
1:56 AM 73.0 °F - 72.0 °F 96% 30.06 in 10.0 mi SSW 3.5 mph - N/A   Clear
2:56 AM 73.9 °F - 73.0 °F 97% 30.05 in 10.0 mi SW 4.6 mph - N/A   Clear
3:56 AM 73.9 °F - 73.0 °F 97% 30.04 in 9.0 mi SSW 4.6 mph - N/A   Clear
4:56 AM 73.9 °F - 73.0 °F 97% 30.05 in 9.0 mi Calm Calm - N/A   Scattered Clouds
5:56 AM 73.9 °F - 73.0 °F 97% 30.06 in 8.0 mi South 3.5 mph - N/A   Clear
6:56 AM 75.0 °F - 73.0 °F 94% 30.06 in 9.0 mi SSW 5.8 mph - N/A   Clear
7:56 AM 77.0 °F - 73.0 °F 88% 30.06 in 10.0 mi WSW 12.7 mph 18.4 mph N/A   Clear
8:56 AM 79.0 °F - 73.9 °F 84% 30.06 in 10.0 mi WSW 10.4 mph - N/A   Partly Cloudy
9:56 AM 81.0 °F 85.2 °F 72.0 °F 74% 30.05 in 10.0 mi West 10.4 mph 20.7 mph N/A   Scattered Clouds
10:56 AM 82.9 °F 88.0 °F 72.0 °F 69% 30.04 in 10.0 mi SW 10.4 mph - N/A   Scattered Clouds
11:56 AM 84.9 °F 91.4 °F 73.0 °F 67% 30.04 in 10.0 mi SW 6.9 mph - N/A   Clear
12:56 PM 86.0 °F 93.0 °F 73.0 °F 65% 30.03 in 10.0 mi SW 11.5 mph - N/A   Scattered Clouds
1:56 PM 87.1 °F 93.6 °F 72.0 °F 61% 30.02 in 10.0 mi SW 6.9 mph - N/A   Scattered Clouds
2:56 PM 86.0 °F 93.8 °F 73.9 °F 67% 29.99 in 10.0 mi South 16.1 mph - N/A   Partly Cloudy
3:56 PM 86.0 °F 95.1 °F 75.0 °F 70% 29.98 in 10.0 mi South 13.8 mph 18.4 mph N/A   Clear
4:56 PM 84.0 °F 91.2 °F 73.9 °F 72% 29.98 in 10.0 mi South 17.3 mph 23.0 mph N/A   Scattered Clouds
5:35 PM 82.4 °F 88.2 °F 73.4 °F 74% 29.96 in 10.0 mi SSW 11.5 mph 24.2 mph N/A Thunderstorm Thunderstorm
5:56 PM 78.1 °F - 66.9 °F 68% 29.98 in 10.0 mi SW 8.1 mph 26.5 mph N/A Thunderstorm Thunderstorm
6:56 PM 75.0 °F - 71.1 °F 87% 29.99 in 6.0 mi SW 3.5 mph - 0.01 in Rain , Thunderstorm Light Thunderstorms and Rain
7:06 PM 75.2 °F - 71.6 °F 89% 29.98 in 9.0 mi SW 3.5 mph - 0.00 in Rain Light Rain
7:17 PM 75.2 °F - 71.6 °F 89% 29.98 in 10.0 mi SW 3.5 mph - 0.01 in Rain Light Rain
7:56 PM 75.0 °F - 72.0 °F 90% 29.99 in 10.0 mi Calm Calm - 0.01 in   Clear
8:56 PM 73.9 °F - 72.0 °F 93% 29.97 in 10.0 mi South 4.6 mph - N/A   Clear
9:56 PM 73.9 °F - 72.0 °F 93% 30.00 in 10.0 mi WSW 3.5 mph - N/A   Mostly Cloudy
10:56 PM 75.0 °F - 73.0 °F 94% 29.98 in 9.0 mi SW 4.6 mph - N/A   Clear
11:56 PM 75.0 °F - 73.9 °F 96% 29.95 in 9.0 mi SSW 8.1 mph - N/A   Clear